This demonstration page uses our WeatherBlox Daily Observations layout. Learn more.

Left ArrowRight Arrow

38.20091, -84.87328

Hourly Observations for September 27, 2016

Temp ( °F °C ) Dew Point ( °F °C ) Humidity (%) Winds ( mph kmh ) Pressure ( in mb ) Visibility ( mi km ) Precip ( " mm )
12:53 am 00:53 Clear 53 11.7 50 10 89 89 SW 3 6 30.06 1018 10 16 0.00 0.00
1:53 am 01:53 Clear 53 11.7 50 10 89 89 SW 3 6 30.05 1018 10 16 0.00 0.00
2:53 am 02:53 Clear 53 11.7 49 9.4 86 86 SW 3 6 30.05 1018 10 16 0.00 0.00
3:53 am 03:53 Clear 51 10.6 48 8.9 89 89 SW 3 6 30.04 1017 10 16 0.00 0.00
4:53 am 04:53 Clear 52 11.1 48 8.9 86 86 SW 5 7 30.02 1017 10 16 0.00 0.00
5:53 am 05:53 Clear 51 10.6 48 8.9 89 89 WSW 3 6 30.02 1017 10 16 0.00 0.00
6:53 am 06:53 Clear 50 10 47 8.3 89 89 Calm 30.01 1016 10 16 0.00 0.00
7:26 am 07:26 Clear with Mist and Fog 49 9.4 46 7.8 90 90 Calm 30.06 1018 3 4 0.00 0.00
7:33 am 07:33 Sunny with Mist and Fog 49 9.4 46 7.8 90 90 Calm 30.06 1018 5 8 0.00 0.00
7:53 am 07:53 Sunny 49 9.4 46 7.8 90 90 Calm 30.02 1017 7 11 0.00 0.00
8:53 am 08:53 Sunny 54 12.2 51 10.6 90 90 SW 5 7 30.02 1017 10 16 0.00 0.00
9:53 am 09:53 Sunny 59 15 52 11.1 78 78 SW 5 7 30.01 1016 10 16 0.00 0.00
10:53 am 10:53 Sunny 65 18.3 50 10 59 59 SW 6 9 30.01 1016 10 16 0.00 0.00
11:53 am 11:53 Sunny 70 21.1 43 6.1 38 38 SW 7 11 29.99 1016 10 16 0.00 0.00
12:53 pm 12:53 Sunny 72 22.2 38 3.3 29 29 WSW 6 9 29.96 1015 10 16 0.00 0.00
1:53 pm 13:53 Sunny 74 23.3 39 3.9 28 28 WSW 10 17 29.94 1014 10 16 0.00 0.00
2:53 pm 14:53 Sunny 75 23.9 41 5 29 29 W 10 17 29.93 1013 10 16 0.00 0.00
3:53 pm 15:53 Sunny 75 23.9 40 4.4 28 28 W 10 17 29.91 1013 10 16 0.00 0.00
4:53 pm 16:53 Sunny 75 23.9 41 5 29 29 W 7 11 29.88 1012 10 16 0.00 0.00
5:53 pm 17:53 Sunny 74 23.3 43 6.1 33 33 SW 8 13 29.87 1012 10 16 0.00 0.00
6:53 pm 18:53 Sunny 71 21.7 43 6.1 36 36 SW 8 13 29.87 1012 10 16 0.00 0.00
7:53 pm 19:53 Clear 65 18.3 46 7.8 51 51 SSW 3 6 29.88 1012 10 16 0.00 0.00
8:53 pm 20:53 Clear 61 16.1 47 8.3 60 60 SSW 3 6 29.89 1012 10 16 0.00 0.00
9:53 pm 21:53 Clear 59 15 46 7.8 62 62 SSW 5 7 29.90 1012 10 16 0.00 0.00
10:53 pm 22:53 Clear 57 13.9 46 7.8 67 67 SSW 5 7 29.89 1012 10 16 0.00 0.00
11:53 pm 23:53 Clear 56 13.3 45 7.2 67 67 S 5 7 29.90 1012 10 16 0.00 0.00

Powered by AerisWeather